Regional Weather Roundup
Issued by NWS

Home | Current Version | Previous Version | Graphics & Text | Print | Product List | Glossary Off
Versions: 1 2 3 4 5 6 7 8 9 10 11 12 13 14 15 16 17 18 19 20 21 22 23 24 25 26 27 28 29 30 31 32 33 34 35 36 37 38 39 40 41 42 43 44 45 46 47 48 49 50

000
ASUS43 KBIS 261220
RWRND

NORTH DAKOTA REGIONAL WEATHER ROUNDUP
NATIONAL WEATHER SERVICE BISMARCK ND
700 AM CDT TUE MAY 26 2015

NOTE: "FAIR" INDICATES FEW OR NO CLOUDS BELOW 12,000 FEET WITH NO
SIGNIFICANT WEATHER AND/OR OBSTRUCTIONS TO VISIBILITY.


NDZ001>003-009>011-017-261300-
NORTHWEST NORTH DAKOTA

CITY           SKY/WX    TMP DP  RH WIND       PRES   REMARKS
WILLISTON      CLEAR     47  45  93 CALM      29.93R
6HR MIN TEMP:  42; 6HR MAX TEMP:  52;

MINOT          CLEAR     58  47  66 W13       29.87R
MINOT AFB      CLEAR     57  54  88 W10       29.86R
$$

NDZ018>021-031>035-040>046-261300-
SOUTHWEST NORTH DAKOTA

CITY           SKY/WX    TMP DP  RH WIND       PRES   REMARKS
BISMARCK       CLEAR     51  48  89 W3        29.93R
6HR MIN TEMP:  51; 6HR MAX TEMP:  57;

DICKINSON      CLEAR     43  43 100 W5        29.94S FOG
GARRISON         N/A     54  47  77 W8        29.90R
6HR MIN TEMP:  51; 6HR MAX TEMP:  56;

HETTINGER ARPT PTCLDY    40  39  97 W3        29.98R
$$

NDZ004>008-012>016-024-026-027-054-261300-
NORTHEAST NORTH DAKOTA

CITY           SKY/WX    TMP DP  RH WIND       PRES   REMARKS
GRAND FORKS    MOSUNNY   55  51  86 S13       29.81S
GRND FRKS AFB  SUNNY     55  52  88 S9        29.82R
DEVILS LAKE    SUNNY     59  48  67 W10       29.83R
$$

NDZ022-023-025-028>030-036>039-047>053-261300-
SOUTHEAST NORTH DAKOTA

CITY           SKY/WX    TMP DP  RH WIND       PRES   REMARKS
FARGO          MOSUNNY   50  48  93 SW3       29.86S
6HR MIN TEMP:  48; 6HR MAX TEMP:  53;

JAMESTOWN      MOSUNNY   53  51  93 S6        29.87R
$$



USA.gov is the U.S. government's official web portal to all federal, state and local government web resources and services.